Find Starlink 31826

NORAD ID: 59768 Int'l Des: 2024-091 Owner: SPXS Country: US Constellation: starlink operational
LEOCIRCULAR

当前视图

正在加载3D地球...

关于 Starlink 31826

正在加载描述...

即将过境

Passes for default location (London). Set your location on the main map for personalized predictions.

高度历史

Loading altitude history...

两行轨道根数

1 59768U 24091R 26149.80207331 .00067360 00000-0 15878-2 0 9990
2 59768 53.1573 7.2379 0006700 160.7300 199.3960 15.41296493115467
Epoch: May 29, 2026 • Age: 19 hours

当前状态

高度 454.5 km
速度 7.64 km/s
星下点 -27.54°S, 113.94°W
发射日期 May 14, 2024
运行时间 2 years
类型 internet

技术详情

分类 Payload
质量 730.00 kg
干质量 700.00 kg
总质量 730.00 kg
长度 0.30 m
直径 4.10 m
跨度 29.00 m
形状 Box + pan
制造商 SPXS
平台类型 Starlink V2M
阶段状态 In Orbit
所有者/国家 SPXS/US

Most Searched